Time,TemperatureF,DewpointF,PressureIn,WindDirection,WindDirectionDegrees,WindSpeedMPH,WindSpeedGustMPH,Humidity,HourlyPrecipIn,Conditions,Clouds,dailyrainin,SoftwareType,DateUTC
2013-08-13 00:52:00,50.0,46.0,30.09,South,187,0.0,0.0,87,0.00,,,0.00,,2013-08-13 07:52:00,
2013-08-13 01:21:00,49.0,45.0,30.11,NE,45,0.0,0.0,87,0.00,,,0.00,,2013-08-13 08:21:00,
2013-08-13 01:52:00,49.0,46.0,30.11,SW,225,0.0,0.0,88,0.00,,,0.00,,2013-08-13 08:52:00,
2013-08-13 02:21:00,48.0,45.0,30.11,ESE,112,0.0,0.0,88,0.00,,,0.00,,2013-08-13 09:21:00,
2013-08-13 03:23:00,47.0,44.0,30.11,West,270,0.0,0.0,88,0.00,,,0.00,,2013-08-13 10:23:00,
2013-08-13 03:52:00,47.0,44.0,30.11,ESE,122,0.0,0.0,88,0.00,,,0.00,,2013-08-13 10:52:00,
2013-08-13 04:11:00,47.0,44.0,30.11,SE,135,0.0,0.0,89,0.00,,,0.00,,2013-08-13 11:11:00,
2013-08-13 04:22:00,49.0,46.0,30.11,NW,320,0.0,0.0,89,0.00,,,0.00,,2013-08-13 11:22:00,
2013-08-13 04:52:00,49.0,46.0,30.11,SE,145,0.0,0.0,89,0.00,,,0.00,,2013-08-13 11:52:00,
2013-08-13 05:12:00,50.0,47.0,30.11,ESE,123,0.0,0.0,89,0.00,,,0.00,,2013-08-13 12:12:00,
2013-08-13 05:21:00,51.0,48.0,30.11,WNW,282,0.0,0.0,89,0.00,,,0.00,,2013-08-13 12:21:00,
2013-08-13 05:52:00,51.0,48.0,30.11,SSE,158,0.0,0.0,88,0.00,,,0.00,,2013-08-13 12:52:00,
2013-08-13 06:21:00,52.0,49.0,30.11,SE,128,0.0,0.0,88,0.00,,,0.00,,2013-08-13 13:21:00,
2013-08-13 06:52:00,52.0,49.0,30.11,South,179,0.0,0.0,89,0.00,,,0.00,,2013-08-13 13:52:00,
2013-08-13 07:21:00,52.0,49.0,30.11,South,183,0.0,0.0,89,0.00,,,0.00,,2013-08-13 14:21:00,
2013-08-13 07:52:00,54.0,51.0,30.11,SSW,203,0.0,1.0,88,0.00,,,0.00,,2013-08-13 14:52:00,
2013-08-13 08:21:00,56.0,51.0,30.11,SSW,195,0.0,0.0,84,0.00,,,0.00,,2013-08-13 15:21:00,
2013-08-13 08:54:00,61.0,52.0,30.11,WSW,246,1.0,2.0,71,0.00,,,0.00,,2013-08-13 15:54:00,
2013-08-13 09:23:00,66.0,54.0,30.11,West,266,2.0,4.0,66,0.00,,,0.00,,2013-08-13 16:23:00,
2013-08-13 09:54:00,68.0,56.0,30.09,SSW,198,1.0,5.0,66,0.00,,,0.00,,2013-08-13 16:54:00,
2013-08-13 10:27:00,70.0,55.0,30.09,West,280,3.0,5.0,60,0.00,,,0.00,,2013-08-13 17:27:00,
2013-08-13 10:45:00,-999.0,-99.9,30.09,West,267,4.0,6.0,60,0.00,,,0.00,,2013-08-13 17:45:00,
2013-08-13 10:56:00,71.0,56.0,30.09,West,267,4.0,6.0,60,0.00,,,0.00,,2013-08-13 17:56:00,
2013-08-13 11:15:00,72.0,57.0,30.08,West,266,1.0,7.0,59,0.00,,,0.00,,2013-08-13 18:15:00,
2013-08-13 11:25:00,74.0,57.0,30.08,WNW,298,3.0,5.0,56,0.00,,,0.00,,2013-08-13 18:25:00,
2013-08-13 11:56:00,76.0,58.0,30.06,West,267,2.0,7.0,54,0.00,,,0.00,,2013-08-13 18:56:00,
2013-08-13 12:24:00,78.0,59.0,30.06,WNW,284,5.0,8.0,53,0.00,,,0.00,,2013-08-13 19:24:00,
2013-08-13 12:55:00,79.0,58.0,30.06,West,261,3.0,7.0,49,0.00,,,0.00,,2013-08-13 19:55:00,
2013-08-13 13:22:00,80.0,59.0,30.04,WNW,282,7.0,10.0,48,0.00,,,0.00,,2013-08-13 20:22:00,
2013-08-13 13:53:00,81.0,58.0,30.03,West,278,5.0,9.0,46,0.00,,,0.00,,2013-08-13 20:53:00,
2013-08-13 14:24:00,83.0,58.0,30.03,West,265,5.0,9.0,43,0.00,,,0.00,,2013-08-13 21:24:00,
2013-08-13 14:54:00,85.0,57.0,30.03,West,263,3.0,8.0,38,0.00,,,0.00,,2013-08-13 21:54:00,
2013-08-13 15:22:00,85.0,57.0,30.01,West,281,5.0,10.0,39,0.00,,,0.00,,2013-08-13 22:22:00,
2013-08-13 15:56:00,86.0,57.0,30.01,WSW,246,4.0,9.0,37,0.00,,,0.00,,2013-08-13 22:56:00,
2013-08-13 16:26:00,86.0,57.0,29.99,WNW,303,4.0,7.0,37,0.00,,,0.00,,2013-08-13 23:26:00,
2013-08-13 16:56:00,86.0,56.0,29.99,West,269,5.0,9.0,36,0.00,,,0.00,,2013-08-13 23:56:00,
2013-08-13 17:11:00,87.0,54.0,29.99,West,267,4.0,7.0,33,0.00,,,0.00,,2013-08-14 00:11:00,
2013-08-13 17:21:00,87.0,55.0,29.99,WNW,302,4.0,7.0,34,0.00,,,0.00,,2013-08-14 00:21:00,
2013-08-13 17:41:00,87.0,54.0,29.98,SW,226,3.0,8.0,33,0.00,,,0.00,,2013-08-14 00:41:00,
2013-08-13 17:52:00,87.0,54.0,29.98,WNW,284,3.0,6.0,32,0.00,,,0.00,,2013-08-14 00:52:00,
2013-08-13 18:21:00,86.0,54.0,29.98,WNW,284,5.0,7.0,34,0.00,,,0.00,,2013-08-14 01:21:00,
2013-08-13 18:52:00,85.0,53.0,29.98,WNW,288,3.0,8.0,33,0.00,,,0.00,,2013-08-14 01:52:00,
2013-08-13 19:21:00,84.0,52.0,29.96,SW,221,2.0,3.0,33,0.00,,,0.00,,2013-08-14 02:21:00,
2013-08-13 23:21:00,58.0,52.0,29.98,SW,228,0.0,0.0,80,0.00,,,0.00,,2013-08-14 06:21:00,
2013-08-13 23:52:00,56.0,51.0,29.98,NE,47,0.0,0.0,82,0.00,,,0.00,,2013-08-14 06:52:00,